Home   Weather   Saint-Pierre   Past weeks

Flag for Réunion (French) Past Weather in Saint-Pierre, Réunion (French) — Yesterday and Last 2 Weeks

Now
73 °F

Clear.


Feels Like: 76 °F
Forecast: 66 / 73 °F
Wind: 3 mph from Southeast

Location: Saint Airport-Pierre

Current Time: Sep 30, 2016 at 7:18:54 PM

Latest Report: Sep 30, 2016 at 7:00 PM


Visibility: N/A

Pressure: 30.09 "Hg

Humidity: 61%

Dew Point: 59 °F

Location of Saint-PierreLocation

Past Weather in Saint-Pierre — Graph

°F

Saint-Pierre Temperature Yesterday

Maximum temperature yesterday: 81 °F (at 11:00 AM)
Minimum temperature yesterday: 64 °F (at 5:00 AM)
Average temperature yesterday: 73 °F

High & Low Weather Summary for the Past Weeks

 TemperatureHumidityPressure
High82 °F (Sep 28, 12:30 PM)88% (Sep 18, 5:00 PM)30.27 "Hg (Sep 18, 5:00 PM)
Low64 °F (Sep 15, 11:00 PM)44% (Sep 25, 7:30 AM)30.01 "Hg (Sep 25, 2:30 PM)
Average72 °F65%30.15 "Hg
* Reported Sep 15 6:00 PM — Sep 30 6:00 PM, Saint-Pierre, Weather by CustomWeather, © 2016

Note: Actual official high and low records may vary slightly from our data, if they occured in-between our weather recording intervals... More about our weather records

Advertising

Saint-Pierre Weather History for the Previous 24 Hours

Scroll right to see more
 ConditionsComfort  
Time TempWeatherWind HumidityBarometerVisibility
6:00 PM
Fri, Sep 30
75 °FClear.5 mph57%30.07 "HgN/A
5:30 PM75 °FClear.3 mph57%30.07 "HgN/A
5:00 PM77 °FClear.2 mph57%30.07 "HgN/A
4:30 PM77 °FClear.6 mph54%30.07 "HgN/A
4:00 PM77 °FClear.7 mph54%30.07 "HgN/A
3:30 PM77 °FPassing clouds.7 mph54%30.07 "HgN/A
3:00 PM79 °FPassing clouds.8 mph54%30.07 "HgN/A
2:30 PM79 °FClear.9 mph51%30.07 "HgN/A
2:00 PM81 °FScattered clouds.12 mph48%30.07 "HgN/A
1:30 PM79 °FPartly sunny.12 mph54%30.07 "HgN/A
1:00 PM79 °FPartly sunny.9 mph58%30.09 "HgN/A
12:30 PM79 °FPartly sunny.9 mph54%30.09 "HgN/A
12:00 PM77 °FPartly sunny.9 mph57%30.09 "HgN/A
11:30 AM81 °FPassing clouds.10 mph51%30.12 "HgN/A
11:00 AM79 °FClear.7 mph54%30.12 "HgN/A
10:30 AM79 °FClear.8 mph58%30.12 "HgN/A
10:00 AM79 °FClear.8 mph58%30.15 "HgN/A
9:30 AM75 °FClear.6 mph61%30.12 "HgN/A
9:00 AM75 °FClear.6 mph61%30.15 "HgN/A
8:30 AM77 °FClear.5 mph54%30.15 "HgN/A
8:00 AM75 °FClear.3 mph57%30.15 "HgN/A
7:30 AM73 °FClear.3 mph57%30.12 "HgN/A
7:00 AM72 °FClear.3 mph61%30.12 "HgN/A
6:30 AM68 °FClear.7 mph64%30.12 "HgN/A
6:00 AM66 °FClear.1 mph68%30.12 "HgN/A
5:30 AM68 °FClear.6 mph64%30.12 "HgN/A
5:00 AM68 °FClear.8 mph64%30.12 "HgN/A
4:30 AM68 °FPassing clouds.3 mph69%30.12 "HgN/A
4:00 AM66 °FClear.7 mph73%30.12 "HgN/A
3:30 AM70 °FPassing clouds.5 mph64%30.12 "HgN/A
3:00 AM68 °FPassing clouds.7 mph69%30.12 "HgN/A
2:30 AM66 °FClear.6 mph73%30.15 "HgN/A
2:00 AM66 °FClear.5 mph73%30.15 "HgN/A
1:30 AM68 °FClear.No wind69%30.15 "HgN/A
1:00 AM68 °FClear.5 mph69%30.15 "HgN/A
12:30 AM68 °FClear.6 mph69%30.15 "HgN/A
12:00 AM68 °FClear.5 mph69%30.18 "HgN/A
11:30 PM
Thu, Sep 29
68 °FClear.6 mph69%30.18 "HgN/A
11:00 PM68 °FClear.6 mph69%30.18 "HgN/A
10:30 PM68 °FClear.3 mph69%30.18 "HgN/A
10:00 PM70 °FClear.3 mph69%30.18 "HgN/A
9:30 PM70 °FClear.5 mph73%30.18 "HgN/A
9:00 PM72 °FClear.5 mph69%30.18 "HgN/A
8:30 PM72 °FClear.No wind69%30.18 "HgN/A
8:00 PM73 °FClear.7 mph74%30.15 "HgN/A
7:30 PM73 °FPassing clouds.5 mph69%30.15 "HgN/A
7:00 PM73 °FPassing clouds.2 mph65%30.15 "HgN/A
Weather by CustomWeather, © 2016

See weather overviewHow to use our weather pages